Location: Sollberg
(42.7389°N, 93.6369°W)
Time: 08:05:03
(UTC+00:00)

ISS - Pass Details

Date: 24 December 2025
Orbit: 414 x 424 km, 51.6° (Epoch: 14 January)

Event Time Altitude Azimuth Distance (km) Brightness Sun altitude
Exits shadow 11:39:21 16° 20° (NNE) 1,184 -1.4 -21.8°
Drops below altitude 10° 11:40:54 10° 45° (NE) 1,519 -0.5 -21.6°
Sets 11:43:30 0° 66° (ENE) 2,385 0.9 -21.1°
